STARLINK-1830, 46727

Orbit data source: Space-Track

STARLINK-1830, 46727 is a payload satellite owned by SpaceX/Seattle (US) in LEO that was launched on Sun, 18 Oct 2020 UTC via an FALCON 9 launch vehicle from the Air Force Eastern Test Range (AFETR). Payload-class satellites include a variety of spacecraft equipped with specific instruments for various scientific and technological missions. These include communications satellites like Starlink; space stations such as the ISS; scientific satellites like the Hubble; Earth observation satellites from companies like Planet Labs, Umbra, and HawkEye 360; GPS; miniature CubeSats for education and research; and military/defense satellites.

Loading next visibility...
Identifier
46727, 2020-073BK
Orbit
LEO
Country
Flag of USUS
Related business
Manufacturer
SpaceX/Seattle
Mission
Partially operational Commercial Communications
Bus & Motor
STARLINK, Unknown motor
Mass
260 kg wet, ~248 kg dry
Launch date (UTC)
2020-10-18 (6 years ago)
Launch vehicle
FALCON 9
Launch site
Air Force Eastern Test Range (AFETR)
Object type
Payload
Rocket body
Debris
Shape & HBR
Box + 1 Pan, 10.1 m
Radar Cross Section
13.562 m², Large (>1 m²)

Expand to show TLE details & history
Last TLE update: 23 hours ago

TLE from 23 hours ago
0 STARLINK-1830
1 46727U 20073BK  26123.67915635  .00080754  00000-0  76389-3 0  9994
2 46727  53.0399 275.0295 0004591 256.7791 103.2712 15.66292485306545
Epoch: 2026-05-03T16:17Z
TLE epoch observation values (Epoch: 2026-05-03T16:17:59.108Z)
Latitude
-0.00002°
Longitude
168.95396°
Altitude
371.137 km
Speed
7.688 km/s
True Right ascension
18h 20m 07s
True Declination
0° 00' 00"
Sunlit
Object was in full shadow at epoch
Visualization orbit readout
Latitude
Unknown
Longitude
Unknown
Altitude
Unknown
Speed
Unknown
Apparent Right ascension
Unknown
Apparent Declination
Unknown
Sunlit
N/A
Visualization observer readout
Local Sidereal Time
23:15:46
Azimuth
Unknown
Elevation
Unknown
Doppler factor
Unknown
Orbital elements
Apogee altitude
372.902 km
Perigee altitude
366.706 km
Semi-major axis
6,747.941 km
Eccentricity
0.00046
Inclination
53.0399°
RAAN
275.0295°
Arg. of periapsis
256.7791°
True anomaly
103.3224°
Mean anomaly
103.2712°
Eccentric anomaly
103.2968°
Mean motion
3.91549 °/min
Orbital period
91.94 mins
BSTAR
0.00076389
Loading maneuver chart data...
Computing Atmospheric mass density...
Loading historical data...
Loading historical data...
Loading historical data...
Loading historical data...
Loading historical data...
Loading historical data...
Loading historical data...

Documentation

Showing up to 5 results
|